Date String (YYYY-MM-DD hh:mm:ss) UTC,Instrument flags,Ambient pressure (hPa),Sample flow (lpm),Bypass flow (lpm),Sample temperature (°C),Ambient temperature (°C),ASC tube jacket temperature (°C),LED temperature (°C),Box temperature (°C),Sample RH (%),Span deviation,Mass concentration (μg/m³),Mass concentration (μg/m³),Mass concentration (μg/m³)
DateTimeUTC,F1_M11,P_M11,Q1_M11,Q2_M11,T1_M11,T2_M11,T3_M11,T4_M11,T5_M11,U1_M11,ZSPAN_M11,X0_M11,X2_M11,X1_M11
2022-07-04 04:00:00,,0825.4,5.00,0.00,29.6,27.3,00.0,38.2,31.3,28.7,0000.0,0009.32,0003.24,0002.44
2022-07-04 04:01:00,,0825.4,5.00,0.00,29.5,27.3,00.0,38.2,31.2,28.8,0000.0,0009.17,0003.23,0002.46
2022-07-04 04:02:00,,0825.3,5.00,0.00,29.4,27.4,00.0,38.2,31.2,28.8,0000.0,0009.22,0003.27,0002.50
2022-07-04 04:03:00,,0825.3,5.00,0.00,29.4,27.5,00.0,38.2,31.2,28.8,0000.0,0009.52,0003.26,0002.51
2022-07-04 04:04:00,,0825.3,5.00,0.00,29.4,27.7,00.0,38.2,31.3,28.7,0000.0,0009.23,0003.26,0002.50
2022-07-04 04:05:00,,0825.3,5.00,0.00,29.4,27.8,00.0,38.2,31.3,28.5,0000.0,0009.12,0003.24,0002.49
2022-07-04 04:06:00,,0825.3,5.00,0.00,29.4,27.9,00.0,38.2,31.3,28.3,0000.0,0008.32,0003.22,0002.48
2022-07-04 04:07:00,,0825.3,5.00,0.00,29.4,28.1,00.0,38.2,31.3,28.0,0000.0,0007.83,0003.21,0002.46
2022-07-04 04:08:00,,0825.3,5.00,0.00,29.4,28.2,00.0,38.2,31.4,27.4,0000.0,0007.46,0003.19,0002.42
2022-07-04 04:09:00,,0825.3,5.00,0.00,29.5,28.3,00.0,38.2,31.4,27.3,0000.0,0007.36,0003.14,0002.37
2022-07-04 04:10:00,,0825.2,4.99,0.00,29.5,28.3,00.0,38.2,31.4,26.9,0000.0,0007.09,0003.11,0002.34
2022-07-04 04:11:00,,0825.2,4.99,0.00,29.5,28.4,00.0,38.3,31.5,26.6,0000.0,0006.36,0003.08,0002.31
2022-07-04 04:12:00,,0825.2,5.00,0.00,29.5,28.5,00.0,38.3,31.5,26.4,0000.0,0006.33,0003.04,0002.26
2022-07-04 04:13:00,,0825.2,5.03,0.00,29.6,28.5,00.0,38.3,31.5,26.1,0000.0,0007.58,0002.96,0002.20
2022-07-04 04:14:00,,0825.1,5.01,0.00,29.6,28.6,00.0,38.3,31.5,25.4,0000.0,0007.22,0002.90,0002.13
2022-07-04 04:15:00,,0825.1,5.00,0.00,29.6,28.6,00.0,38.3,31.6,25.0,0000.0,0006.49,0002.76,0002.05
2022-07-04 04:16:00,,0825.1,5.00,0.00,29.6,28.7,00.0,38.4,31.6,25.2,0000.0,0006.23,0002.66,0001.98
2022-07-04 04:17:00,,0825.1,4.99,0.00,29.7,28.7,00.0,38.4,31.6,25.3,0000.0,0006.04,0002.58,0001.92
2022-07-04 04:18:00,,0825.1,4.98,0.00,29.7,28.2,00.0,38.3,31.6,25.5,0000.0,0006.47,0002.50,0001.86
2022-07-04 04:19:00,,0825.0,5.00,0.00,29.6,27.6,00.0,38.3,31.4,25.9,0000.0,0006.24,0002.40,0001.82
2022-07-04 04:20:00,,0824.9,5.01,0.00,29.6,27.4,00.0,38.3,31.4,26.0,0000.0,0006.19,0002.38,0001.82
2022-07-04 04:21:00,,0824.9,5.00,0.00,29.5,27.4,00.0,38.3,31.3,25.9,0000.0,0006.12,0002.35,0001.79
2022-07-04 04:22:00,,0824.9,5.00,0.00,29.5,27.5,00.0,38.3,31.2,25.9,0000.0,0006.09,0002.32,0001.78
2022-07-04 04:23:00,,0824.8,5.00,0.00,29.4,27.6,00.0,38.2,31.3,25.8,0000.0,0005.97,0002.29,0001.78
2022-07-04 04:24:00,,0824.8,5.00,0.00,29.4,27.7,00.0,38.2,31.3,25.4,0000.0,0004.28,0002.26,0001.78
2022-07-04 04:25:00,,0824.8,4.99,0.00,29.4,27.9,00.0,38.2,31.3,24.9,0000.0,0004.07,0002.21,0001.76
2022-07-04 04:26:00,,0824.7,5.00,0.00,29.4,28.0,00.0,38.2,31.3,24.7,0000.0,0004.02,0002.19,0001.76
2022-07-04 04:27:00,,0824.7,5.00,0.00,29.5,28.1,00.0,38.3,31.3,24.6,0000.0,0004.05,0002.19,0001.76
2022-07-04 04:28:00,,0824.7,5.00,0.00,29.5,28.2,00.0,38.3,31.4,24.6,0000.0,0003.90,0002.17,0001.76
2022-07-04 04:29:00,,0824.6,5.00,0.00,29.5,28.3,00.0,38.3,31.4,24.6,0000.0,0003.22,0002.15,0001.77
2022-07-04 04:30:00,,0824.6,4.99,0.00,29.5,28.3,00.0,38.3,31.4,24.5,0000.0,0003.36,0002.19,0001.78
2022-07-04 04:31:00,,0824.6,5.00,0.00,29.5,28.4,00.0,38.3,31.5,24.6,0000.0,0003.31,0002.18,0001.78
2022-07-04 04:32:00,,0824.6,5.00,0.00,29.6,28.5,00.0,38.3,31.5,24.6,0000.0,0003.18,0002.15,0001.79
2022-07-04 04:33:00,,0824.6,5.01,0.00,29.6,28.5,00.0,38.3,31.5,24.5,0000.0,0003.08,0002.14,0001.80
2022-07-04 04:34:00,,0824.6,5.00,0.00,29.6,28.6,00.0,38.3,31.5,24.6,0000.0,0003.19,0002.16,0001.79
2022-07-04 04:35:00,,0824.7,5.00,0.00,29.6,28.6,00.0,38.3,31.6,24.5,0000.0,0003.20,0002.17,0001.80
2022-07-04 04:36:00,,0824.6,4.99,0.00,29.7,28.7,00.0,38.4,31.6,24.5,0000.0,0003.23,0002.21,0001.82
2022-07-04 04:37:00,,0824.7,5.01,0.00,29.7,28.7,00.0,38.4,31.6,24.6,0000.0,0003.34,0002.28,0001.84
2022-07-04 04:38:00,,0824.7,5.00,0.00,29.7,28.7,00.0,38.4,31.6,24.6,0000.0,0003.43,0002.35,0001.88
2022-07-04 04:39:00,,0824.5,4.99,0.00,29.7,28.0,00.0,38.3,31.6,24.7,0000.0,0003.52,0002.39,0001.91
2022-07-04 04:40:00,,0824.6,4.99,0.00,29.7,27.4,00.0,38.3,31.4,24.8,0000.0,0003.63,0002.44,0001.93
2022-07-04 04:41:00,,0824.5,5.01,0.00,29.6,27.3,00.0,38.3,31.3,24.9,0000.0,0003.57,0002.45,0001.95
2022-07-04 04:42:00,,0824.5,5.02,0.00,29.5,27.4,00.0,38.3,31.2,25.0,0000.0,0003.66,0002.48,0001.97
2022-07-04 04:43:00,,0824.4,4.99,0.00,29.5,27.5,00.0,38.3,31.2,25.0,0000.0,0003.72,0002.50,0001.99
2022-07-04 04:44:00,,0824.4,5.00,0.00,29.5,27.6,00.0,38.3,31.3,25.0,0000.0,0004.05,0002.58,0002.02
2022-07-04 04:45:00,,0824.4,4.98,0.00,29.5,27.7,00.0,38.3,31.3,25.0,0000.0,0004.22,0002.65,0002.05
2022-07-04 04:46:00,,0824.4,5.01,0.00,29.5,27.9,00.0,38.3,31.3,25.0,0000.0,0004.48,0002.72,0002.08
2022-07-04 04:47:00,,0824.4,5.00,0.00,29.5,28.0,00.0,38.3,31.3,25.1,0000.0,0004.62,0002.75,0002.10
2022-07-04 04:48:00,,0824.4,5.01,0.00,29.5,28.1,00.0,38.3,31.4,25.0,0000.0,0004.64,0002.76,0002.13
2022-07-04 04:49:00,,0824.5,5.00,0.00,29.5,28.2,00.0,38.3,31.4,25.1,0000.0,0004.69,0002.73,0002.14
2022-07-04 04:50:00,,0824.5,4.99,0.00,29.5,28.3,00.0,38.3,31.4,25.0,0000.0,0005.17,0002.72,0002.14
2022-07-04 04:51:00,,0824.4,5.00,0.00,29.5,28.3,00.0,38.3,31.4,24.9,0000.0,0005.41,0002.79,0002.16
2022-07-04 04:52:00,,0824.4,5.00,0.00,29.6,28.4,00.0,38.3,31.5,25.0,0000.0,0005.55,0002.85,0002.19
2022-07-04 04:53:00,,0824.4,5.00,0.00,29.6,28.5,00.0,38.3,31.5,24.9,0000.0,0005.64,0002.93,0002.21
2022-07-04 04:54:00,,0824.4,5.01,0.00,29.6,28.5,00.0,38.3,31.5,24.9,0000.0,0006.63,0002.99,0002.24
2022-07-04 04:55:00,,0824.4,5.00,0.00,29.6,28.6,00.0,38.4,31.5,24.9,0000.0,0006.79,0002.97,0002.25
2022-07-04 04:56:00,,0824.4,4.99,0.00,29.7,28.6,00.0,38.4,31.6,24.9,0000.0,0006.59,0002.94,0002.26
2022-07-04 04:57:00,,0824.4,5.00,0.00,29.7,28.7,00.0,38.4,31.6,24.9,0000.0,0006.46,0002.90,0002.27
2022-07-04 04:58:00,,0824.4,5.00,0.00,29.7,28.7,00.0,38.4,31.7,24.9,0000.0,0006.34,0002.92,0002.30
2022-07-04 04:59:00,,0824.4,5.00,0.00,29.7,28.7,00.0,38.4,31.7,24.9,0000.0,0006.44,0002.95,0002.31
